Regional Weather Roundup
Issued by NWS Kansas City/Pleasant Hill, MO

Home | Current Version | Previous Version | Graphics & Text | Print | Product List | Glossary Off
Versions: 1 2 3 4 5 6 7 8 9 10 11 12 13 14 15 16 17 18 19 20 21 22 23 24 25 26 27 28 29 30 31 32 33 34 35 36 37 38 39 40 41 42 43 44 45 46 47 48 49 50

000
ASUS43 KEAX 181510
RWREAX

WEATHER ROUNDUP FOR EASTERN KANSAS AND NORTHWEST MISSOURI
NATIONAL WEATHER SERVICE KANSAS CITY/PLEASANT HILL MO
1000 AM CDT WED APR 18 2018

KSZ040-057-103>105-MOZ028-029-037-043-181600-
...KANSAS CITY METROPOLITAN AREA...

CITY           SKY/WX    TMP DP  RH WIND       PRES   REMARKS
K.C. INTL      CLOUDY    42  33  70 W20G25    29.84R WCI  33
K.C. DOWNTOWN  CLOUDY    45  33  63 W15G24    29.85R
LEES SUMMIT    CLOUDY    44  34  67 W17G29    29.85R
OLATHE - IXD   CLOUDY    44  34  67 W18G25    29.88R
OLATHE - OJC   CLOUDY    42  33  70 W13G24    29.86R
LAWRENCE       CLOUDY    45  34  65 NW21G35   29.88R

$$

MOZ001>008-011>017-020>025-030>033-038>040-044>046-053-054-181600-
...NORTHERN AND CENTRAL MISSOURI...

CITY           SKY/WX    TMP DP  RH WIND       PRES   REMARKS
ST. JOSEPH     CLOUDY    41  34  76 NW25G31   29.85R WCI  31
MOSBY          CLOUDY    45  32  61 NW21G32   29.82R
WARRENSBURG    SUNNY     50  32  50 W24G30    29.82R
WHITEMAN AFB   SUNNY     52  34  51 W28G37    29.75R
CLINTON        NOT AVBL
SEDALIA        NOT AVBL
WARSAW         NOT AVBL
CHILLICOTHE      N/A     48  35  60 NW12G22   29.76R
KIRKSVILLE     CLOUDY    42  34  73 NW14G20   29.70R WCI  35

$$

MOZ041-047>049-056>058-063>065-088>090-097-181600-
...EASTERN AND SOUTHERN MISSOURI...

CITY           SKY/WX    TMP DP  RH WIND       PRES   REMARKS
ST. LOUIS INTL SUNNY     58  45  62 S10       29.62S
SPIRIT OF STL  SUNNY     62  48  60 SW12G23   29.62R
COLUMBIA       SUNNY     55  38  52 W29G48    29.69R
JEFFERSON CITY SUNNY     57  38  48 W30G45    29.69R
OSAGE BEACH    SUNNY     58  38  47 W17G28    29.76R
SPRINGFIELD    SUNNY     57  38  48 W18G35    29.85R
BRANSON        SUNNY     61  37  41 W23G35    29.88R
JOPLIN         SUNNY     56  38  50 NW24G35   29.94R
WEST PLAINS    SUNNY     69  41  36 NW15G30   29.79R

$$

IAZ060-094-KSZ022-034>040-054-083-096-NEZ052-066-093-181600-
...KANSAS...SOUTHEAST NEBRASKA AND IOWA...

CITY           SKY/WX    TMP DP  RH WIND       PRES   REMARKS
TOPEKA         CLOUDY    44  34  67 NW17G32   29.90R
MANHATTAN      CLOUDY    45  31  58 NW15G26   29.96R
EMPORIA        CLOUDY    47  36  65 NW14G26   29.94R
CHANUTE        CLOUDY    53  37  54 NW24G33   29.97R
WICHITA        MOSUNNY   55  33  43 NW30G38   30.01R
OMAHA          FLURRIES  34  30  85 N18       29.90R WCI  23
LINCOLN        CLOUDY    34  28  79 N21G29    29.95R WCI  22
FALLS CITY     CLOUDY    37  32  82 NW20G30   29.87R WCI  27
LAMONI         CLOUDY    35  30  82 N13       29.76R WCI  26
DES MOINES     FRZ DRZL  32  29  88 NE13      29.79R FOG     WCI  22

$$




USA.gov is the U.S. government's official web portal to all federal, state and local government web resources and services.